We konden geen weer-waarchuwingen ophalen. Ga rechtstreeks naar de Meteoalarm site : www.meteoalarm.eu en controleer daar .



Onweer radar Meer informatie blitzortung!


Regen radar Meer informatie rain snow radar


Bezoek onze andere website:

Template documentation
and downloads

And another site



15 daagse weersverwachting Kreuzlingen (CH)

  • Overzicht
  • Per uur
  • 15 dagen
  • Extra
  • Vergelijk
  • Kaarten
  • Dagkaart
  • Meer »
  • Info
  • Statistieken
  • Directe link
    Temp 6h Neerslag Wind  
 06:25     20:30    Daglengte: 14:05 Vandaag
02:00
19°
 
3
08:00
18°
 
1
14:00
23°
 
1
20:00
20°
22.7 mm
2
warningclass
 06:26     20:28    Daglengte: 14:02 Morgen
02:00
18°
30.2 mm
2
08:00
18°
47.1 mm
2
14:00
20°
47.4 mm
3
20:00
19°
63.0 mm
3
 06:27     20:26    Daglengte: 13:59 Zaterdag 20 Aug
02:00
17°
28.5 mm
2
08:00
17°
 
1
14:00
22°
 
3
20:00
19°
175.3 mm
1
Locatie info
Region: Kreuzlingen
Latitude: 47.6482°N
Longitude: 9.1751°E
394 masl
Postcode: 8280
Temp/Neerslag /Baro Onweer/Dauwpunt
    Temp Baro 1h Neerslag Dauwpunt Wind UV Bewolking  
 06:25     20:30    Daglengte: 14:05 Vandaag
01:00
20°
1013.5 hPa
48%
16.9°
3
Windvlaag: 3 m/s
23%
02:00
19°
1013.5 hPa
26%
16.8°
3
Windvlaag: 2.3 m/s
20%
03:00
18°
1013.3 hPa
24%
16.7°
2
Windvlaag: 2.4 m/s
19%
04:00
18°
1013.3 hPa
23%
16.6°
2
Windvlaag: 2.8 m/s
36%
05:00
18°
1013.0 hPa
21%
16.5°
1
Windvlaag: 2.1 m/s
39%
06:00
18°
1012.6 hPa
16%
16.5°
1
Windvlaag: 0.9 m/s
60%
07:00
18°
1012.6 hPa
14%
16.7°
1
Windvlaag: 1.3 m/s
63%
08:00
18°
1012.9 hPa
14%
16.5°
1
Windvlaag: 0.1 m/s
70%
09:00
19°
1013.1 hPa
15%
16.8°
2
Windvlaag: -0.2 m/s
64%
10:00
20°
1013.1 hPa
18%
16.7°
1
Windvlaag: -0.5 m/s
49%
11:00
21°
1013.0 hPa
14%
16.5°
2
Windvlaag: -1.3 m/s
83%
12:00
21°
1012.9 hPa
62%
16.1°
2
Windvlaag: -1.5 m/s
86%
13:00
22°
1012.4 hPa
64%
15.1°
1
Windvlaag: -1.6 m/s
84%
14:00
23°
1012.0 hPa
75%
14.8°
1
Windvlaag: -2 m/s
84%
15:00
23°
1011.5 hPa
75%
14.2°
1
Windvlaag: -2 m/s
70%
16:00
23°
1011.2 hPa
74%
13.7°
1
Windvlaag: -1.8 m/s
86%
17:00
23°
1010.9 hPa
80%
13.8°
1
Windvlaag: 1 m/s
86%
18:00
22°
1010.8 hPa 5.8 mm
82%
14.2°
2
Windvlaag: 1.6 m/s
66%
19:00
21°
1010.9 hPa 8.0 mm
82%
13.0°
2
Windvlaag: -0.2 m/s
71% warningclass
20:00
20°
1011.6 hPa 8.9 mm
82%
13.9°
2
Windvlaag: -0.5 m/s
75% warningclass
21:00
19°
1011.9 hPa 7.1 mm
79%
15.4°
1
Windvlaag: -2.5 m/s
69%
22:00
19°
1012.3 hPa 7.7 mm
77%
15.2°
2
Windvlaag: -0.4 m/s
85%
23:00
19°
1012.5 hPa
73%
13.8°
2
Windvlaag: 0.1 m/s
85%
 06:26     20:28    Daglengte: 14:02 Morgen
00:00
19°
1012.7 hPa
32%
14.5°
2
Windvlaag: 0.4 m/s
75%
01:00
18°
1012.6 hPa 7.6 mm
76%
15.7°
2
Windvlaag: 0.1 m/s
74%
02:00
18°
1012.4 hPa 7.7 mm
79%
15.5°
2
Windvlaag: -0.6 m/s
86%
03:00
18°
1012.1 hPa 7.5 mm
77%
15.7°
2
Windvlaag: -0.7 m/s
85% warningclass
04:00
18°
1012.2 hPa 7.2 mm
82%
16.3°
2
Windvlaag: -2.8 m/s
86% warningclass
05:00
18°
1012.4 hPa 7.7 mm
82%
16.1°
1
Windvlaag: -3.3 m/s
86%
06:00
18°
1012.5 hPa 8.5 mm
82%
16.0°
2
Windvlaag: -2.2 m/s
86%
07:00
18°
1013.0 hPa 8.4 mm
82%
15.9°
2
Windvlaag: -0.7 m/s
86%
08:00
18°
1013.4 hPa 7.8 mm
78%
16.0°
2
Windvlaag: -0.2 m/s
86%
09:00
19°
1013.7 hPa 7.3 mm
72%
15.8°
3
Windvlaag: 0.6 m/s
86%
10:00
19°
1014.0 hPa 8.0 mm
70%
15.5°
3
Windvlaag: -0.3 m/s
86%
11:00
20°
1014.4 hPa 8.7 mm
73%
16.1°
2
Windvlaag: 0.5 m/s
86%
12:00
20°
1014.8 hPa
81%
16.9°
2
Windvlaag: 1.3 m/s
86%
13:00
20°
1015.0 hPa 10.5 mm
78%
17.7°
3
Windvlaag: 0.8 m/s
86%
14:00
20°
1015.3 hPa 13.0 mm
82%
17.8°
3
Windvlaag: 1.2 m/s
86%
15:00
20°
1015.4 hPa 15.0 mm
77%
17.7°
3
Windvlaag: 3.8 m/s
86%
16:00
21°
1015.4 hPa 15.5 mm
82%
17.2°
4
Windvlaag: 4.2 m/s
54%
17:00
21°
1015.2 hPa 15.7 mm
82%
18.4°
3
Windvlaag: 4.3 m/s
74%
18:00
21°
1015.5 hPa 16.8 mm
82%
18.6°
3
Windvlaag: 4.8 m/s
47%
19:00
20°
1015.8 hPa
81%
18.5°
3
Windvlaag: 5.2 m/s
46%
20:00
19°
1016.0 hPa
82%
17.9°
3
Windvlaag: 5.4 m/s
45%
21:00
19°
1016.6 hPa
34%
17.4°
4
Windvlaag: 4.7 m/s
30%
22:00
19°
1017.0 hPa
27%
17.1°
4
Windvlaag: 3.8 m/s
14%
23:00
17°
1017.6 hPa 28.5 mm
87%
16.5°
3
Windvlaag: 4.1 m/s
41%
 06:27     20:26    Daglengte: 13:59 Zaterdag 20 Aug
00:00
17°
1017.7 hPa
36%
16.8°
3
Windvlaag: 4.3 m/s
21%
01:00
17°
1017.9 hPa
25%
15.8°
2
Windvlaag: 4.4 m/s
24%
02:00
17°
1017.8 hPa
22%
14.8°
2
Windvlaag: 4.5 m/s
24%
03:00
16°
1017.8 hPa
21%
14.2°
3
Windvlaag: 4.1 m/s
40%
04:00
16°
1017.9 hPa
21%
13.5°
2
Windvlaag: 3.3 m/s
36%
05:00
16°
1017.9 hPa
21%
13.5°
2
Windvlaag: 3.8 m/s
41%
06:00
16°
1017.9 hPa
21%
13.5°
2
Windvlaag: 3.7 m/s
54%
07:00
16°
1018.5 hPa
21%
12.9°
1
Windvlaag: 3 m/s
62%
08:00
17°
1018.7 hPa
21%
13.3°
1
Windvlaag: 5 m/s
18%
09:00
19°
1018.8 hPa
22%
14.5°
2
Windvlaag: 4.4 m/s
18%
10:00
20°
1018.6 hPa
24%
15.3°
2
Windvlaag: 3.7 m/s
20%
11:00
21°
1018.6 hPa
27%
15.3°
3
Windvlaag: 3.7 m/s
20%
12:00
21°
1018.4 hPa
40%
15.9°
4
Windvlaag: 3.7 m/s
89%
13:00
21°
1018.3 hPa
93%
15.8°
4
Windvlaag: 3.6 m/s
50%
14:00
22°
1018.1 hPa
98%
14.3°
3
Windvlaag: 4.2 m/s
74%
15:00
22°
1017.9 hPa 28.6 mm
99%
13.5°
3
Windvlaag: 4.9 m/s
62%
16:00
22°
1017.8 hPa 28.8 mm
100%
12.7°
3
Windvlaag: 4.8 m/s
44%
17:00
21°
1017.7 hPa 29.0 mm
100%
12.7°
3
Windvlaag: 4 m/s
82% warningclass
18:00
20°
1018.0 hPa 30.3 mm
100%
12.3°
3
Windvlaag: 3.4 m/s
52%
19:00
19°
1018.4 hPa 29.7 mm
100%
12.4°
2
Windvlaag: 3.8 m/s
51% warningclass
20:00
19°
1018.7 hPa 28.9 mm
100%
14.3°
1
Windvlaag: 3.2 m/s
47%
21:00
18°
1019.1 hPa
45%
13.5°
1
Windvlaag: 1.7 m/s
15%
22:00
18°
1019.1 hPa
30%
13.4°
1
Windvlaag: 1.4 m/s
12%
23:00
17°
1019.1 hPa
35%
13.6°
1
Windvlaag: 2.1 m/s
20%
 06:29     20:25    Daglengte: 13:56 Zondag 21 Aug
00:00
17°
1018.9 hPa
44%
13.5°
1
Windvlaag: 1.9 m/s
6%
Temp/Neerslag /Baro Onweer/Dauwpunt
    Temp Baro Neerslag Dauwpunt Wind Bewolking  
 06:25     20:30    Daglengte: 14:05 Vandaag
02:00
19°
1013.5 hPa   16.8°
3
20%
05:00
18°
1013.0 hPa   16.5°
1
39%
08:00
18°
1012.9 hPa   16.5°
1
70%
11:00
21°
1013.0 hPa   16.5°
2
83%
14:00
23°
1012.0 hPa   14.8°
1
84%
17:00
23°
1010.9 hPa   13.8°
1
86%
20:00
20°
1011.6 hPa 22.7 mm 13.9°
2
75% warningclass
23:00
19°
1012.5 hPa 14.8 mm 13.8°
2
85%
 06:26     20:28    Daglengte: 14:02 Morgen
02:00
18°
1012.4 hPa 15.4 mm 15.5°
2
86%
05:00
18°
1012.4 hPa 22.5 mm 16.1°
1
86%
08:00
18°
1013.4 hPa 24.7 mm 16.0°
2
86%
11:00
20°
1014.4 hPa 24.0 mm 16.1°
2
86%
14:00
20°
1015.3 hPa 23.5 mm 17.8°
3
86%
17:00
21°
1015.2 hPa 46.2 mm 18.4°
3
74%
20:00
19°
1016.0 hPa 16.8 mm 17.9°
3
45%
23:00
17°
1017.6 hPa 28.5 mm 16.5°
3
41%
 06:27     20:26    Daglengte: 13:59 Zaterdag 20 Aug
02:00
17°
1017.8 hPa   14.8°
2
24%
05:00
16°
1017.9 hPa   13.5°
2
41%
08:00
17°
1018.7 hPa   13.3°
1
18%
11:00
21°
1018.6 hPa   15.3°
3
20%
14:00
22°
1018.1 hPa   14.3°
3
74%
17:00
21°
1017.7 hPa 86.4 mm 12.7°
3
82% warningclass
20:00
19°
1018.7 hPa 88.9 mm 14.3°
1
47%
23:00
17°
1019.1 hPa   13.6°
1
20%
 06:29     20:25    Daglengte: 13:56 Zondag 21 Aug
02:00
16°
1018.7 hPa   13.4°
1
5%
05:00
13°
1017.5 hPa 52.5 mm 12.5°
1
0%
08:00
15°
1017.7 hPa 52.5 mm 13.9°
0
0%
11:00
20°
1016.4 hPa 52.5 mm 15.0°
0
0%
14:00
23°
1014.8 hPa 53.4 mm 14.3°
1
1%
17:00
24°
1013.8 hPa 53.9 mm 11.3°
0
1%
20:00
17°
1015.5 hPa 56.4 mm 14.2°
2
1%
23:00
16°
1016.7 hPa 58.2 mm 14.3°
1
1%
 06:30     20:23    Daglengte: 13:53 Maandag 22 Aug
02:00
14°
1016.2 hPa 58.2 mm 13.0°
1
1%
05:00
13°
1016.5 hPa 58.2 mm 11.7°
0
1%
08:00
15°
1017.2 hPa 58.2 mm 12.2°
0
1%
11:00
20°
1016.7 hPa 58.2 mm 10.6°
2
0%
14:00
25°
1015.3 hPa 58.2 mm 10.1°
4
0%
17:00
25°
1014.8 hPa 58.2 mm 9.6°
4
0%
20:00
19°
1015.9 hPa 58.2 mm 12.3°
2
0%
23:00
15°
1016.9 hPa 58.2 mm 11.0°
0
0%
 06:31     20:21    Daglengte: 13:50 Dinsdag 23 Aug
02:00
13°
1017.6 hPa 58.2 mm 10.0°
1
0%
05:00
12°
1018.4 hPa 58.2 mm 10.2°
1
0%
08:00
14°
1019.0 hPa 58.2 mm 10.7°
1
0%
11:00
21°
1017.9 hPa 58.2 mm 9.9°
3
0%
14:00
25°
1016.7 hPa 58.2 mm 8.2°
4
0%
17:00
25°
1016.0 hPa 58.2 mm 8.8°
4
0%
20:00
18°
1016.8 hPa 58.2 mm 11.2°
2
0%
23:00
14°
1017.8 hPa 58.2 mm 9.5°
1
0%
 06:33     20:19    Daglengte: 13:46 Woensdag 24 Aug
02:00
12°
1017.9 hPa 58.2 mm 9.0°
1
0%
05:00
11°
1018.2 hPa 58.2 mm 9.0°
1
0%
08:00
13°
1018.5 hPa 58.2 mm 9.8°
1
0%
11:00
21°
1017.6 hPa 58.2 mm 10.5°
3
0%
14:00
25°
1016.3 hPa 58.2 mm 9.9°
3
0%
17:00
25°
1015.7 hPa 58.2 mm 10.4°
3
1%
20:00
19°
1016.3 hPa 58.2 mm 13.6°
2
0%
23:00
15°
1017.7 hPa   12.1°
0
0%
 06:34     20:17    Daglengte: 13:43 Donderdag 25 Aug
02:00
14°
1017.7 hPa 116.5 mm 12.2°
1
0%
08:00
14°
1018.5 hPa 116.5 mm 12.5°
0
0%
14:00
26°
1016.3 hPa 116.5 mm 12.8°
1
0%
20:00
21°
1015.6 hPa 116.5 mm 15.8°
1
0%
 06:35     20:15    Daglengte: 13:40 Vrijdag 26 Aug
02:00
16°
1017.2 hPa 116.5 mm 14.1°
0
0%
08:00
17°
1016.9 hPa 116.5 mm 14.6°
0
0%
14:00
28°
Voelt als: 28.1°
1014.2 hPa 116.5 mm 13.5°
1
0%
20:00
22°
1013.1 hPa 116.5 mm 16.4°
1
0%
 06:37     20:13    Daglengte: 13:36 Zaterdag 27 Aug
02:00
17°
1014.8 hPa 116.6 mm 15.1°
1
1%
08:00
18°
1016.3 hPa 117.3 mm 16.7°
1
0%
14:00
29°
1015.0 hPa 117.9 mm 15.9°
1
1%
20:00
21°
1018.7 hPa 0.3 mm 15.9°
1
50%
 06:38     20:11    Daglengte: 13:33 Zondag 28 Aug
02:00
17°
1019.7 hPa 0.8 mm 14.3°
1
53%
08:00
17°
1020.0 hPa 0.8 mm 14.8°
0
59%
14:00
26°
1018.9 hPa 0.3 mm 16.6°
1
57%
20:00
21°
1019.5 hPa 1.2 mm 16.0°
1
50%
 06:39     20:09    Daglengte: 13:30 Maandag 29 Aug
02:00
17°
1020.5 hPa 0.7 mm 14.3°
1
59%
08:00
17°
1020.4 hPa 0.8 mm 14.6°
0
50%
14:00
26°
1019.4 hPa 0.6 mm 16.3°
1
50%
20:00
20°
1019.4 hPa 0.8 mm 15.5°
1
57%
 06:41     20:07    Daglengte: 13:26 Dinsdag 30 Aug
02:00
16°
1020.3 hPa 0.6 mm 13.6°
1
61%
08:00
16°
1020.1 hPa 0.4 mm 14.2°
0
52%
14:00
25°
1018.5 hPa 0.6 mm 15.4°
1
50%
20:00
20°
1018.5 hPa 1.7 mm 14.8°
0
57%
 06:42     20:05    Daglengte: 13:23 Woensdag 31 Aug
02:00
15°
1019.4 hPa 0.7 mm 13.1°
0
51%
08:00
16°
1019.0 hPa 0.4 mm 13.5°
0
44%
14:00
25°
1017.3 hPa 0.5 mm 14.9°
1
40%
20:00
19°
1017.5 hPa 1.6 mm 14.7°
1
51%
 06:43     20:03    Daglengte: 13:20 Donderdag 01 Sep
02:00
15°
1018.9 hPa 1.4 mm 12.3°
0
49%
08:00
15°
1019.0 hPa 0.9 mm 12.3°
0
47%
14:00
24°
1017.6 hPa 0.7 mm 13.7°
1
44%
20:00
18°
1018.0 hPa 0.7 mm 13.3°
1
45%
  CAPE Lifted Index Hail Supercell Tornado SRH 3km CL BTM PRES CL TOP PRES Swiss DWD icon SMHI TS
 06:25     20:30    Daglengte: 14:05 Vandaag
01:00 0 J/kg -2.0 K 0 % 0 % 0 % 0 m²/s² 0 0 -1.64 3
02:00 0 J/kg -1.7 K 0 % 0 % 0 % 0 m²/s² 0 0 -1.34 2
03:00 33 J/kg -1.5 K 0 % 0 % 0 % 0 m²/s² 0 0 -1.14 2
04:00 47 J/kg -0.9 K 0 % 0 % 0 % 0 m²/s² 0 0 -0.03 3
05:00 0 J/kg 0.3 K 0 % 0 % 0 % 0 m²/s² 0 0 1.38 3
06:00 1 J/kg -0.2 K 0 % 0 % 0 % 0 m²/s² 0 0 1.54 3
07:00 0 J/kg -0.9 K 0 % 0 % 0 % 0 m²/s² 0 0 0.33 3
08:00 2 J/kg 0.7 K 0 % 0 % 0 % 0 m²/s² 0 0 1.78 3
09:00 0 J/kg -0.5 K 0 % 0 % 0 % 0 m²/s² 0 0 0.07 3
10:00 9 J/kg -0.4 K 0 % 0 % 0 % 0 m²/s² 0 0 -0.19 3
11:00 216 J/kg -1.4 K 0 % 0 % 0 % 0 m²/s² 0 0 -0.68 3
12:00 379 J/kg -2.0 K 0 % 0 % 0 % 0 m²/s² 0 0 -1.52 3
13:00 627 J/kg -2.4 K 0 % 0 % 0 % 0 m²/s² 0 0 -1.05 3
14:00 500 J/kg -1.9 K 0 % 0 % 0 % 0 m²/s² 0 0 -0.43 3
15:00 468 J/kg -2.2 K 0 % 0 % 0 % 0 m²/s² 0 0 -1.66 3
16:00 689 J/kg -3.4 K 0 % 0 % 0 % 0 m²/s² 0 0 -3.4 3
17:00 917 J/kg -3.3 K 0 % 0 % 0 % 0 m²/s² 0 0 -3.3 3
18:00 2 J/kg 1.4 K 0 % 0 % 0 % 0 m²/s² 0 0 1.76 80
19:00 0 J/kg 1.1 K 0 % 0 % 0 % 0 m²/s² 0 0 1.58 95
20:00 7 J/kg 0.7 K 0 % 0 % 0 % 0 m²/s² 0 0 0.91 95
21:00 0 J/kg 0.0 K 0 % 0 % 0 % 0 m²/s² 0 0 0.03 80
22:00 0 J/kg -0.2 K 0 % 0 % 0 % 0 m²/s² 0 0 1.54 80
23:00 1 J/kg 0.1 K 0 % 0 % 0 % 0 m²/s² 0 0 3.25 3
 06:26     20:28    Daglengte: 14:02 Morgen
00:00 0 J/kg 0.5 K 0 % 0 % 0 % 0 m²/s² 0 0 4.79 3
01:00 0 J/kg 0.3 K 0 % 0 % 0 % 0 m²/s² 0 0 5.07 80
02:00 0 J/kg -0.3 K 0 % 0 % 0 % 0 m²/s² 0 0 3.87 3
03:00 0 J/kg -0.2 K 0 % 0 % 0 % 0 m²/s² 0 0 4.45 95
04:00 26 J/kg -1.7 K 0 % 0 % 0 % 0 m²/s² 0 0 0.55 95
05:00 9 J/kg -1.4 K 0 % 0 % 0 % 0 m²/s² 0 0 1 80
06:00 0 J/kg -0.7 K 0 % 0 % 0 % 0 m²/s² 0 0 2.18 80
07:00 81 J/kg -1.5 K 0 % 0 % 0 % 0 m²/s² 0 0 0.12 80
08:00 134 J/kg -1.4 K 0 % 0 % 0 % 0 m²/s² 0 0 -0.5 80
09:00 262 J/kg -2.0 K 0 % 0 % 0 % 0 m²/s² 0 0 -1.82 3
10:00 271 J/kg -1.6 K 0 % 0 % 0 % 0 m²/s² 0 0 -1.48 3
11:00 380 J/kg -2.2 K 0 % 0 % 0 % 0 m²/s² 0 0 -2.11 3
12:00 186 J/kg -1.8 K 0 % 0 % 0 % 0 m²/s² 0 0 -1.71 3
13:00 0 J/kg -1.8 K 0 % 0 % 0 % 0 m²/s² 0 0 -1.8 3
14:00 10 J/kg -0.7 K 0 % 0 % 0 % 0 m²/s² 0 0 -0.61 80
15:00 27 J/kg -0.6 K 0 % 0 % 0 % 0 m²/s² 0 0 -0.57 80
16:00 41 J/kg -0.1 K 0 % 0 % 0 % 0 m²/s² 0 0 0.26 80
17:00 151 J/kg -1.4 K 0 % 0 % 0 % 0 m²/s² 0 0 -1.01 80
18:00 94 J/kg -2.0 K 0 % 0 % 0 % 0 m²/s² 0 0 -2 80
19:00 163 J/kg -2.6 K 0 % 0 % 0 % 0 m²/s² 0 0 -2.33 80
20:00 89 J/kg -2.1 K 0 % 0 % 0 % 0 m²/s² 0 0 -1.89 3
21:00 26 J/kg -1.6 K 0 % 0 % 0 % 0 m²/s² 0 0 -1.33 2
22:00 84 J/kg -1.0 K 0 % 0 % 0 % 0 m²/s² 0 0 -0.7 2
23:00 122 J/kg -0.6 K 0 % 0 % 0 % 0 m²/s² 0 0 -0.03 80
 06:27     20:26    Daglengte: 13:59 Zaterdag 20 Aug
00:00 33 J/kg 0.4 K 0 % 0 % 0 % 0 m²/s² 0 0 1.9 1
01:00 0 J/kg 1.2 K 0 % 0 % 0 % 0 m²/s² 0 0 3.36 2
02:00 0 J/kg 2.1 K 0 % 0 % 0 % 0 m²/s² 0 0 5.46 2
03:00 0 J/kg 2.3 K 0 % 0 % 0 % 0 m²/s² 0 0 6.53 2
04:00 0 J/kg 1.9 K 0 % 0 % 0 % 0 m²/s² 0 0 4.72 1
05:00 0 J/kg 2.1 K 0 % 0 % 0 % 0 m²/s² 0 0 3.81 0
06:00 0 J/kg 1.8 K 0 % 0 % 0 % 0 m²/s² 0 0 3.57 0
07:00 0 J/kg 1.3 K 0 % 0 % 0 % 0 m²/s² 0 0 2.89 1
08:00 0 J/kg 1.2 K 0 % 0 % 0 % 0 m²/s² 0 0 1.92 1
09:00 0 J/kg 0.8 K 0 % 0 % 0 % 0 m²/s² 0 0 1.19 1
10:00 0 J/kg 0.9 K 0 % 0 % 0 % 0 m²/s² 0 0 1.38 1
11:00 82 J/kg 0.3 K 0 % 0 % 0 % 0 m²/s² 0 0 0.72 2
12:00 375 J/kg -1.7 K 0 % 0 % 0 % 0 m²/s² 0 0 -1.28 3
13:00 324 J/kg -1.5 K 0 % 0 % 0 % 0 m²/s² 0 0 -0.93 2
14:00 312 J/kg -1.5 K 0 % 0 % 0 % 0 m²/s² 0 0 -0.69 80
15:00 267 J/kg -1.4 K 0 % 0 % 0 % 0 m²/s² 0 0 -0.59 3
16:00 191 J/kg -1.0 K 0 % 0 % 0 % 0 m²/s² 0 0 -0.25 80
17:00 253 J/kg -1.2 K 0 % 0 % 0 % 0 m²/s² 0 0 -0.39 95
18:00 342 J/kg -1.6 K 0 % 0 % 0 % 0 m²/s² 0 0 -0.85 80
19:00 417 J/kg -1.7 K 0 % 0 % 0 % 0 m²/s² 0 0 -0.98 95
20:00 366 J/kg -1.3 K 0 % 0 % 0 % 0 m²/s² 0 0 -0.34 3
21:00 99 J/kg -0.8 K 0 % 0 % 0 % 0 m²/s² 0 0 1.09 2
22:00 21 J/kg -0.9 K 0 % 0 % 0 % 0 m²/s² 0 0 1.56 2
23:00 18 J/kg -0.4 K 0 % 0 % 0 % 0 m²/s² 0 0 2.42 3
 06:29     20:25    Daglengte: 13:56 Zondag 21 Aug
00:00 0 J/kg 0.4 K 0 % 0 % 0 % 0 m²/s² 0 0 3.91 2
Temp Baro Wind Neerslag
  EWN Forecast EWN WRFDA DWD ICON FMI HIRLAM MET Norway GFS
 06:25     20:30    Daglengte: 14:05 Vandaag
02:00 19.0° 1013.5 hPa 2.5 m/s 0.0 mm 17.8° 1011.6 hPa 0.9 m/s 4.4 mm 18.7° 1013.4 hPa 1.9 m/s -1.4 mm 20.3° 1014.9 hPa 2.6 m/s 0.0 mm 16.8° 1014.0 hPa 2.0 m/s
05:00 17.7° 1013.0 hPa 1.3 m/s 0.0 mm 15.4° 1010.9 hPa 1.9 m/s 8.5 mm 17.7° 1012.6 hPa 1.0 m/s 0.0 mm 18.7° 1015.2 hPa 1.2 m/s 0.0 mm 16.9° 1013.3 hPa 1.1 m/s
08:00 18.2° 1012.9 hPa 1.2 m/s 0.0 mm 16.9° 1011.0 hPa 1.3 m/s 8.7 mm 18.0° 1012.9 hPa 1.4 m/s 0.0 mm 19.6° 1014.3 hPa 1.0 m/s 0.0 mm 17.3° 1014.0 hPa 0.3 m/s
11:00 20.5° 1013.0 hPa 1.7 m/s 0.0 mm 20.1° 1011.5 hPa 0.4 m/s 8.7 mm 20.4° 1013.1 hPa 1.8 m/s 0.0 mm 21.7° 1014.2 hPa 2.6 m/s 0.0 mm 19.7° 1013.5 hPa 1.6 m/s
14:00 22.8° 1012.0 hPa 1.2 m/s 0.0 mm 24.5° 1008.5 hPa 2.5 m/s 8.8 mm 21.2° 1012.3 hPa 0.4 m/s 0.5 mm 24.4° 1013.2 hPa 3.3 m/s 0.0 mm 22.4° 1012.0 hPa 2.0 m/s
17:00 23.4° 1010.9 hPa 1.5 m/s 0.0 mm 22.9° 1008.6 hPa 1.8 m/s 9.8 mm 21.8° 1011.5 hPa 0.8 m/s 0.3 mm 26.5° 1010.9 hPa 4.2 m/s 0.0 mm 20.7° 1011.5 hPa 1.4 m/s
20:00 20.4° 1011.6 hPa 1.9 m/s 22.7 mm 18.2° 1008.9 hPa 2.1 m/s 88.8 mm 19.3° 1012.2 hPa 0.3 m/s 5.2 mm 24.7° 1011.8 hPa 3.9 m/s 0.0 mm 18.0° 1011.8 hPa 2.1 m/s
23:00 18.7° 1012.5 hPa 1.9 m/s 14.8 mm 16.9° 1009.2 hPa 2.5 m/s 91.6 mm 18.3° 1013.2 hPa 1.4 m/s 1.9 mm 22.2° 1012.3 hPa 4.1 m/s 0.0 mm 17.4° 1013.0 hPa 0.9 m/s
 06:26     20:28    Daglengte: 14:02 Morgen
02:00 18.1° 1012.4 hPa 2.0 m/s 15.4 mm 16.2° 1009.3 hPa 1.9 m/s 91.7 mm 18.1° 1013.2 hPa 1.7 m/s 3.4 mm 20.0° 1012.3 hPa 2.6 m/s 0.0 mm 17.0° 1012.7 hPa 0.9 m/s
05:00 17.9° 1012.4 hPa 1.4 m/s 22.5 mm 15.6° 1008.7 hPa 0.3 m/s 91.8 mm 18.1° 1013.1 hPa 1.3 m/s 5.2 mm 19.0° 1012.4 hPa 0.9 m/s 0.0 mm 16.8° 1012.1 hPa 1.2 m/s
08:00 18.2° 1013.4 hPa 2.0 m/s 24.7 mm 17.5° 1009.0 hPa 0.6 m/s 93.0 mm 18.2° 1014.5 hPa 2.0 m/s 4.8 mm 19.6° 1013.2 hPa 1.3 m/s 0.0 mm 16.9° 1012.9 hPa 1.5 m/s
11:00 19.9° 1014.4 hPa 2.3 m/s 24.0 mm 17.6° 1010.7 hPa 1.0 m/s 108.9 mm 20.1° 1015.3 hPa 2.2 m/s 1.0 mm 22.8° 1012.9 hPa 1.6 m/s 0.0 mm 18.3° 1014.2 hPa 2.1 m/s
14:00 20.2° 1015.3 hPa 3.3 m/s 23.5 mm 16.5° 1012.0 hPa 3.6 m/s 160.6 mm 20.4° 1016.1 hPa 3.4 m/s 0.5 mm 24.2° 1012.8 hPa 2.0 m/s 0.0 mm 18.3° 1014.6 hPa 2.6 m/s
17:00 21.0° 1015.2 hPa 3.4 m/s 46.2 mm 17.4° 1013.5 hPa 2.1 m/s 224.0 mm 21.6° 1015.7 hPa 3.5 m/s 1.2 mm 23.0° 1013.2 hPa 1.9 m/s 0.0 mm 17.6° 1015.6 hPa 3.6 m/s
20:00 19.3° 1016.0 hPa 3.4 m/s 16.8 mm 17.4° 1014.5 hPa 2.7 m/s 250.9 mm 19.4° 1017.2 hPa 3.0 m/s 2.5 mm 21.3° 1014.2 hPa 3.3 m/s 0.0 mm 16.9° 1016.3 hPa 2.3 m/s
23:00 17.3° 1017.6 hPa 2.5 m/s 28.5 mm 14.7° 1015.7 hPa 1.7 m/s 255.7 mm 18.7° 1018.0 hPa 2.0 m/s 0.2 mm 15.2° 1017.8 hPa 1.5 m/s
 06:27     20:26    Daglengte: 13:59 Zaterdag 20 Aug
02:00 16.7° 1017.8 hPa 2.4 m/s 0.0 mm 13.6° 1015.7 hPa 2.3 m/s 255.7 mm 17.4° 1018.2 hPa 1.3 m/s 0.0 mm 15.3° 1017.8 hPa 1.5 m/s
05:00 16.0° 1017.9 hPa 2.4 m/s 0.0 mm 12.6° 1015.9 hPa 2.4 m/s 255.7 mm 16.6° 1018.1 hPa 1.1 m/s 0.0 mm 14.8° 1017.7 hPa 0.9 m/s
08:00 16.5° 1018.7 hPa 1.5 m/s 0.0 mm 16.2° 1017.0 hPa 2.3 m/s 255.7 mm 16.6° 1019.2 hPa 1.2 m/s 0.0 mm 16.1° 1017.8 hPa 0.8 m/s
11:00 21.1° 1018.6 hPa 3.3 m/s 0.0 mm 20.5° 1017.5 hPa 2.6 m/s 255.7 mm 21.2° 1018.9 hPa 3.4 m/s 0.0 mm 21.6° 1017.1 hPa 1.5 m/s
14:00 21.8° 1018.1 hPa 3.5 m/s 0.0 mm 22.2° 1017.0 hPa 3.3 m/s 255.9 mm 21.6° 1018.4 hPa 3.5 m/s 0.1 mm 22.1° 1017.3 hPa 2.9 m/s
17:00 21.5° 1017.7 hPa 3.3 m/s 86.4 mm 22.5° 1016.4 hPa 3.1 m/s 256.1 mm 21.2° 1018.1 hPa 3.4 m/s 1.6 mm 21.2° 1017.0 hPa 2.1 m/s
20:00 18.8° 1018.7 hPa 1.4 m/s 88.9 mm 19.2° 1016.7 hPa 1.7 m/s 256.1 mm 18.7° 1019.3 hPa 1.3 m/s 5.2 mm 18.0° 1017.8 hPa 1.0 m/s
23:00 17.0° 1019.1 hPa 1.3 m/s 0.0 mm 15.5° 1017.1 hPa 2.0 m/s 256.1 mm 17.4° 1019.6 hPa 1.1 m/s 0.0 mm 15.0° 1019.1 hPa 0.5 m/s
 06:29     20:25    Daglengte: 13:56 Zondag 21 Aug
02:00 15.8° 1018.7 hPa 1.2 m/s 0.0 mm 13.4° 1016.9 hPa 1.8 m/s 256.1 mm 16.4° 1019.2 hPa 1.1 m/s 0.1 mm 13.9° 1018.5 hPa 0.8 m/s
05:00 13.0° 1017.5 hPa 0.6 m/s 52.5 mm 13.0° 1017.5 hPa 0.6 m/s 52.5 mm
08:00 14.6° 1017.7 hPa 0.2 m/s 52.5 mm 14.6° 1017.7 hPa 0.2 m/s 52.5 mm
11:00 20.4° 1016.4 hPa 0.3 m/s 52.5 mm 20.4° 1016.4 hPa 0.3 m/s 52.5 mm
14:00 23.2° 1014.8 hPa 1.0 m/s 53.4 mm 23.2° 1014.8 hPa 1.0 m/s 53.4 mm
17:00 23.9° 1013.8 hPa 0.4 m/s 53.9 mm 23.9° 1013.8 hPa 0.4 m/s 53.9 mm
20:00 17.2° 1015.5 hPa 1.6 m/s 56.4 mm 17.2° 1015.5 hPa 1.6 m/s 56.4 mm
23:00 15.6° 1016.7 hPa 1.2 m/s 58.2 mm 15.6° 1016.7 hPa 1.2 m/s 58.2 mm
 06:30     20:23    Daglengte: 13:53 Maandag 22 Aug
02:00 14.1° 1016.2 hPa 0.7 m/s 58.2 mm 14.1° 1016.2 hPa 0.7 m/s 58.2 mm
05:00 13.3° 1016.5 hPa 0.5 m/s 58.2 mm 13.3° 1016.5 hPa 0.5 m/s 58.2 mm
08:00 14.7° 1017.2 hPa 0.5 m/s 58.2 mm 14.7° 1017.2 hPa 0.5 m/s 58.2 mm
11:00 20.4° 1016.7 hPa 2.1 m/s 58.2 mm 20.4° 1016.7 hPa 2.1 m/s 58.2 mm
14:00 24.6° 1015.3 hPa 3.5 m/s 58.2 mm 24.6° 1015.3 hPa 3.5 m/s 58.2 mm
17:00 25.0° 1014.8 hPa 4.0 m/s 58.2 mm 25.0° 1014.8 hPa 4.0 m/s 58.2 mm
20:00 19.1° 1015.9 hPa 2.2 m/s 58.2 mm 19.1° 1015.9 hPa 2.2 m/s 58.2 mm
23:00 14.8° 1016.9 hPa 0.5 m/s 58.2 mm 14.8° 1016.9 hPa 0.5 m/s 58.2 mm
 06:31     20:21    Daglengte: 13:50 Dinsdag 23 Aug
02:00 13.0° 1017.6 hPa 0.7 m/s 58.2 mm 13.0° 1017.6 hPa 0.7 m/s 58.2 mm
05:00 11.7° 1018.4 hPa 0.6 m/s 58.2 mm 11.7° 1018.4 hPa 0.6 m/s 58.2 mm
08:00 13.9° 1019.0 hPa 0.8 m/s 58.2 mm 13.9° 1019.0 hPa 0.8 m/s 58.2 mm
11:00 21.0° 1017.9 hPa 3.0 m/s 58.2 mm 21.0° 1017.9 hPa 3.0 m/s 58.2 mm
14:00 24.8° 1016.7 hPa 4.0 m/s 58.2 mm 24.8° 1016.7 hPa 4.0 m/s 58.2 mm
17:00 25.0° 1016.0 hPa 4.1 m/s 58.2 mm 25.0° 1016.0 hPa 4.1 m/s 58.2 mm
20:00 18.3° 1016.8 hPa 2.1 m/s 58.2 mm 18.3° 1016.8 hPa 2.1 m/s 58.2 mm
23:00 14.4° 1017.8 hPa 0.7 m/s 58.2 mm 14.4° 1017.8 hPa 0.7 m/s 58.2 mm
 06:33     20:19    Daglengte: 13:46 Woensdag 24 Aug
02:00 12.4° 1017.9 hPa 0.8 m/s 58.2 mm 12.4° 1017.9 hPa 0.8 m/s 58.2 mm
05:00 10.9° 1018.2 hPa 1.0 m/s 58.2 mm 10.9° 1018.2 hPa 1.0 m/s 58.2 mm
08:00 13.2° 1018.5 hPa 0.9 m/s 58.2 mm 13.2° 1018.5 hPa 0.9 m/s 58.2 mm
11:00 20.7° 1017.6 hPa 2.9 m/s 58.2 mm 20.7° 1017.6 hPa 2.9 m/s 58.2 mm
14:00 24.8° 1016.3 hPa 3.1 m/s 58.2 mm 24.8° 1016.3 hPa 3.1 m/s 58.2 mm
17:00 25.5° 1015.7 hPa 2.9 m/s 58.2 mm 25.5° 1015.7 hPa 2.9 m/s 58.2 mm
20:00 19.1° 1016.3 hPa 1.8 m/s 58.2 mm 19.1° 1016.3 hPa 1.8 m/s 58.2 mm
23:00 15.4° 1017.7 hPa 0.5 m/s 58.2 mm 15.4° 1017.7 hPa 0.5 m/s 58.2 mm
 06:34     20:17    Daglengte: 13:43 Donderdag 25 Aug
02:00 13.7° 1017.7 hPa 0.6 m/s 58.2 mm 13.7° 1017.7 hPa 0.6 m/s 58.2 mm
08:00 14.5° 1018.5 hPa 0.4 m/s 58.2 mm 14.5° 1018.5 hPa 0.4 m/s 58.2 mm
14:00 26.4° 1016.3 hPa 1.0 m/s 58.2 mm 26.4° 1016.3 hPa 1.0 m/s 58.2 mm
20:00 20.7° 1015.6 hPa 0.5 m/s 58.2 mm 20.7° 1015.6 hPa 0.5 m/s 58.2 mm
 06:35     20:15    Daglengte: 13:40 Vrijdag 26 Aug
02:00 15.5° 1017.2 hPa 0.2 m/s 58.2 mm 15.5° 1017.2 hPa 0.2 m/s 58.2 mm
08:00 16.7° 1016.9 hPa 0.3 m/s 58.2 mm 16.7° 1016.9 hPa 0.3 m/s 58.2 mm
14:00 28.4° 1014.2 hPa 0.5 m/s 58.2 mm 28.4° 1014.2 hPa 0.5 m/s 58.2 mm
20:00 22.5° 1013.1 hPa 0.8 m/s 58.2 mm 22.5° 1013.1 hPa 0.8 m/s 58.2 mm
 06:37     20:13    Daglengte: 13:36 Zaterdag 27 Aug
02:00 17.3° 1014.8 hPa 0.5 m/s 58.3 mm 17.3° 1014.8 hPa 0.5 m/s 58.3 mm
08:00 17.9° 1016.3 hPa 0.8 m/s 58.9 mm 17.9° 1016.3 hPa 0.8 m/s 58.9 mm
14:00 29.0° 1015.0 hPa 0.9 m/s 59.0 mm 29.0° 1015.0 hPa 0.9 m/s 59.0 mm
20:00 21.2° 1018.7 hPa 1.3 m/s 0.3 mm
 06:38     20:11    Daglengte: 13:33 Zondag 28 Aug
02:00 16.6° 1019.7 hPa 0.6 m/s 0.8 mm
08:00 16.8° 1020.0 hPa 0.5 m/s 0.8 mm
14:00 26.3° 1018.9 hPa 1.4 m/s 0.3 mm
20:00 20.9° 1019.5 hPa 0.8 m/s 1.2 mm
 06:39     20:09    Daglengte: 13:30 Maandag 29 Aug
02:00 16.7° 1020.5 hPa 0.5 m/s 0.7 mm
08:00 16.6° 1020.4 hPa 0.3 m/s 0.8 mm
14:00 25.6° 1019.4 hPa 1.2 m/s 0.6 mm
20:00 20.4° 1019.4 hPa 0.7 m/s 0.8 mm
 06:41     20:07    Daglengte: 13:26 Dinsdag 30 Aug
02:00 16.0° 1020.3 hPa 0.6 m/s 0.6 mm
08:00 16.2° 1020.1 hPa 0.3 m/s 0.4 mm
14:00 25.3° 1018.5 hPa 1.1 m/s 0.6 mm
20:00 19.7° 1018.5 hPa 0.4 m/s 1.7 mm
 06:42     20:05    Daglengte: 13:23 Woensdag 31 Aug
02:00 15.3° 1019.4 hPa 0.3 m/s 0.7 mm
08:00 15.6° 1019.0 hPa 0.4 m/s 0.4 mm
14:00 25.0° 1017.3 hPa 1.0 m/s 0.5 mm
20:00 19.3° 1017.5 hPa 0.5 m/s 1.6 mm
 06:43     20:03    Daglengte: 13:20 Donderdag 01 Sep
02:00 14.8° 1018.9 hPa 0.4 m/s 1.4 mm
08:00 14.7° 1019.0 hPa 0.2 m/s 0.9 mm